WZZ52AV LWSK-LHBP

Flight info

Callsign WZZ52AV
Flight time 1h 9m
Altitude 38000
Route RAXAD DCT RAVAK DCT OKLOP DCT MAVIT DCT KEZAL
Aircraft A21N/M-SDE1E2E3FGIJ1J4RWXY/LB1

Departure

Time 2026-04-25 08:53
Airport Skopje International Airport (LWSK)

Arrival

Time 2026-04-25 10:03
Airport Budapest Liszt Ferenc International Airport (LHBP)
Time Latitude Longitude Altitude Speed Heading
2026-04-25 08:33 41.96069 21.62590 783 ft 0 kts 75°
2026-04-25 08:45 41.96068 21.62584 783 ft 2 kts 78°
2026-04-25 08:45 41.96068 21.62563 782 ft 2 kts 103°
2026-04-25 08:45 41.96073 21.62544 782 ft 2 kts 121°
2026-04-25 08:45 41.96083 21.62528 782 ft 2 kts 141°
2026-04-25 08:46 41.96096 21.62518 782 ft 2 kts 160°
2026-04-25 08:46 41.96108 21.62514 782 ft 0 kts 169°
2026-04-25 08:46 41.96109 21.62513 782 ft 0 kts 168°
2026-04-25 08:49 41.96080 21.62523 782 ft 11 kts 166°
2026-04-25 08:49 41.95977 21.62557 780 ft 10 kts 166°
2026-04-25 08:49 41.95924 21.62518 779 ft 7 kts 219°
2026-04-25 08:49 41.95857 21.62518 777 ft 13 kts 164°
2026-04-25 08:50 41.95737 21.62562 776 ft 21 kts 165°
2026-04-25 08:50 41.95582 21.62618 774 ft 23 kts 166°
2026-04-25 08:50 41.95454 21.62625 771 ft 18 kts 206°
2026-04-25 08:50 41.95354 21.62570 768 ft 15 kts 202°
2026-04-25 08:51 41.95287 21.62489 766 ft 11 kts 266°
2026-04-25 08:51 41.95310 21.62443 765 ft 0 kts 337°
2026-04-25 08:52 41.95324 21.62437 765 ft 2 kts 346°
2026-04-25 08:52 41.95402 21.62408 766 ft 38 kts 346°
2026-04-25 08:53 41.95912 21.62229 773 ft 110 kts 347°
2026-04-25 08:53 41.96855 21.61893 843 ft 159 kts 344°
2026-04-25 08:53 41.97912 21.61501 1463 ft 159 kts 344°
2026-04-25 08:53 41.98972 21.61106 2112 ft 161 kts 345°
2026-04-25 08:54 42.00052 21.60747 2759 ft 159 kts 347°
2026-04-25 08:54 42.01174 21.60764 3154 ft 169 kts 24°
2026-04-25 08:54 42.02077 21.61855 3497 ft 184 kts 58°
2026-04-25 08:54 42.02384 21.63579 3916 ft 199 kts 92°
2026-04-25 08:55 42.02135 21.65499 4307 ft 215 kts 99°
2026-04-25 08:55 42.01782 21.67477 4826 ft 224 kts 100°
2026-04-25 08:55 42.01546 21.69665 5291 ft 239 kts 93°
2026-04-25 08:55 42.01318 21.72012 5738 ft 258 kts 95°
2026-04-25 08:56 42.01167 21.74478 6330 ft 266 kts 81°
2026-04-25 08:56 42.01717 21.76752 6964 ft 267 kts 54°
2026-04-25 08:56 42.02896 21.78711 7679 ft 270 kts 43°
2026-04-25 08:56 42.04403 21.80198 8426 ft 270 kts 17°
2026-04-25 08:57 42.06238 21.80423 9283 ft 268 kts 352°
2026-04-25 08:57 42.08095 21.79994 10046 ft 272 kts 350°
2026-04-25 08:57 42.10014 21.79529 10586 ft 284 kts 351°
2026-04-25 08:57 42.12034 21.79067 11011 ft 299 kts 351°
2026-04-25 08:58 42.14172 21.78588 11683 ft 306 kts 352°
2026-04-25 08:58 42.16305 21.78117 12384 ft 310 kts 352°
2026-04-25 08:58 42.18488 21.77640 13091 ft 314 kts 352°
2026-04-25 08:58 42.20702 21.77159 13809 ft 317 kts 352°
2026-04-25 08:59 42.22943 21.76674 14514 ft 320 kts 352°
2026-04-25 08:59 42.25197 21.76187 15197 ft 323 kts 353°
2026-04-25 08:59 42.27475 21.75696 15858 ft 326 kts 353°
2026-04-25 08:59 42.29749 21.75204 16499 ft 329 kts 353°
2026-04-25 09:00 42.32050 21.74707 17127 ft 331 kts 353°
2026-04-25 09:00 42.34370 21.74206 17740 ft 334 kts 353°
2026-04-25 09:00 42.36724 21.73696 18345 ft 337 kts 353°
2026-04-25 09:00 42.39106 21.73182 18932 ft 340 kts 353°
2026-04-25 09:01 42.41521 21.72659 19514 ft 342 kts 353°
2026-04-25 09:01 42.43887 21.72147 20064 ft 345 kts 353°
2026-04-25 09:01 42.46291 21.71625 20611 ft 347 kts 353°
2026-04-25 09:01 42.48717 21.71099 21140 ft 349 kts 353°
2026-04-25 09:02 42.51119 21.70577 21651 ft 352 kts 353°
2026-04-25 09:02 42.53586 21.70040 22158 ft 354 kts 353°
2026-04-25 09:02 42.56036 21.69508 22645 ft 356 kts 353°
2026-04-25 09:02 42.58492 21.68972 23126 ft 358 kts 353°
2026-04-25 09:03 42.60969 21.68432 23588 ft 361 kts 353°
2026-04-25 09:03 42.63455 21.67889 24049 ft 363 kts 353°
2026-04-25 09:03 42.65963 21.67341 24495 ft 365 kts 353°
2026-04-25 09:03 42.68496 21.66788 24921 ft 367 kts 353°
2026-04-25 09:04 42.71037 21.66233 25338 ft 369 kts 353°
2026-04-25 09:04 42.73598 21.65672 25744 ft 372 kts 353°
2026-04-25 09:04 42.76215 21.65099 26134 ft 375 kts 353°
2026-04-25 09:04 42.78782 21.64536 26514 ft 377 kts 353°
2026-04-25 09:05 42.81418 21.63957 26899 ft 379 kts 353°
2026-04-25 09:05 42.84045 21.63380 27263 ft 381 kts 353°
2026-04-25 09:05 42.86684 21.62800 27614 ft 384 kts 353°
2026-04-25 09:05 42.89309 21.62224 27966 ft 386 kts 352°
2026-04-25 09:06 42.91991 21.61636 28334 ft 388 kts 352°
2026-04-25 09:06 42.94707 21.61035 28711 ft 389 kts 352°
2026-04-25 09:06 42.97354 21.60449 29053 ft 391 kts 352°
2026-04-25 09:06 43.00065 21.59848 29405 ft 393 kts 352°
2026-04-25 09:07 43.02791 21.59244 29747 ft 394 kts 352°
2026-04-25 09:07 43.05491 21.58646 30112 ft 395 kts 352°
2026-04-25 09:07 43.08207 21.58044 30450 ft 396 kts 352°
2026-04-25 09:07 43.10916 21.57443 30777 ft 398 kts 352°
2026-04-25 09:08 43.13670 21.56832 31104 ft 400 kts 352°
2026-04-25 09:08 43.16417 21.56222 31416 ft 401 kts 352°
2026-04-25 09:08 43.19198 21.55604 31735 ft 403 kts 352°
2026-04-25 09:08 43.21948 21.54993 32031 ft 405 kts 352°
2026-04-25 09:09 43.24712 21.54376 32330 ft 406 kts 352°
2026-04-25 09:09 43.27495 21.53756 32620 ft 408 kts 352°
2026-04-25 09:09 43.30295 21.53131 32894 ft 409 kts 352°
2026-04-25 09:09 43.33134 21.52497 33180 ft 411 kts 352°
2026-04-25 09:10 43.35949 21.51868 33449 ft 412 kts 352°
2026-04-25 09:10 43.38750 21.51242 33703 ft 414 kts 352°
2026-04-25 09:10 43.41610 21.50601 33989 ft 414 kts 352°
2026-04-25 09:10 43.44451 21.49964 34337 ft 413 kts 352°
2026-04-25 09:11 43.50085 21.48699 35041 ft 411 kts 351°
2026-04-25 09:11 43.52885 21.48068 35377 ft 409 kts 351°
2026-04-25 09:11 43.55684 21.47437 35686 ft 408 kts 351°
2026-04-25 09:12 43.58482 21.46807 35977 ft 408 kts 351°
2026-04-25 09:12 43.61296 21.46172 36275 ft 407 kts 351°
2026-04-25 09:12 43.64068 21.45547 36522 ft 407 kts 351°
2026-04-25 09:12 43.66862 21.44915 36728 ft 407 kts 351°
2026-04-25 09:13 43.69684 21.44277 36919 ft 408 kts 351°
2026-04-25 09:13 43.72500 21.43639 37095 ft 409 kts 351°
2026-04-25 09:13 43.75335 21.42997 37273 ft 410 kts 351°
2026-04-25 09:13 43.78135 21.42361 37457 ft 411 kts 351°
2026-04-25 09:14 43.80947 21.41722 37622 ft 411 kts 351°
2026-04-25 09:14 43.83774 21.41080 37773 ft 412 kts 351°
2026-04-25 09:14 43.86618 21.40432 37918 ft 413 kts 351°
2026-04-25 09:14 43.89450 21.39787 38059 ft 414 kts 351°
2026-04-25 09:15 43.95204 21.38473 38092 ft 416 kts 351°
2026-04-25 09:15 44.00969 21.37157 38095 ft 416 kts 351°
2026-04-25 09:16 44.06696 21.35848 38094 ft 415 kts 351°
2026-04-25 09:16 44.12437 21.34525 38096 ft 415 kts 350°
2026-04-25 09:17 44.21072 21.33147 38094 ft 416 kts 357°
2026-04-25 09:18 44.26935 21.32980 38095 ft 416 kts 358°
2026-04-25 09:18 44.32797 21.32861 38095 ft 416 kts 358°
2026-04-25 09:19 44.38626 21.32740 38092 ft 416 kts 358°
2026-04-25 09:19 44.44483 21.32613 38087 ft 416 kts 358°
2026-04-25 09:20 44.50339 21.32486 38078 ft 416 kts 358°
2026-04-25 09:20 44.56188 21.32358 38072 ft 416 kts 358°
2026-04-25 09:21 44.62060 21.32229 38068 ft 416 kts 357°
2026-04-25 09:21 44.67904 21.32100 38067 ft 417 kts 357°
2026-04-25 09:22 44.73750 21.31970 38066 ft 417 kts 357°
2026-04-25 09:22 44.79583 21.31842 38066 ft 416 kts 357°
2026-04-25 09:23 44.85395 21.31712 38066 ft 416 kts 357°
2026-04-25 09:23 44.91260 21.31581 38066 ft 416 kts 357°
2026-04-25 09:24 44.97115 21.31449 38067 ft 417 kts 357°
2026-04-25 09:24 45.02957 21.31318 38067 ft 416 kts 357°
2026-04-25 09:25 45.08772 21.31185 38066 ft 416 kts 357°
2026-04-25 09:25 45.14574 21.31052 38067 ft 416 kts 356°
2026-04-25 09:26 45.20339 21.30465 38066 ft 415 kts 351°
2026-04-25 09:26 45.25981 21.29026 38066 ft 413 kts 345°
2026-04-25 09:27 45.31471 21.26749 38066 ft 412 kts 339°
2026-04-25 09:27 45.36880 21.23864 38066 ft 412 kts 338°
2026-04-25 09:28 45.42239 21.20934 38066 ft 412 kts 338°
2026-04-25 09:28 45.47596 21.18000 38066 ft 412 kts 338°
2026-04-25 09:29 45.52980 21.15051 38062 ft 413 kts 338°
2026-04-25 09:29 45.58332 21.12112 38056 ft 413 kts 338°
2026-04-25 09:30 45.63732 21.09143 38049 ft 412 kts 338°
2026-04-25 09:30 45.69141 21.06162 38043 ft 412 kts 338°
2026-04-25 09:31 45.74569 21.03165 38041 ft 412 kts 338°
2026-04-25 09:31 45.80006 21.00156 38040 ft 412 kts 338°
2026-04-25 09:32 45.85464 20.97130 38040 ft 412 kts 338°
2026-04-25 09:32 45.90888 20.94116 38040 ft 412 kts 338°
2026-04-25 09:33 45.96308 20.91098 38040 ft 412 kts 338°
2026-04-25 09:33 46.01736 20.88073 38041 ft 412 kts 337°
2026-04-25 09:34 46.07119 20.85067 38040 ft 411 kts 336°
2026-04-25 09:34 46.12535 20.82028 38040 ft 411 kts 336°
2026-04-25 09:35 46.17941 20.78990 38034 ft 411 kts 336°
2026-04-25 09:35 46.23373 20.75932 38027 ft 411 kts 336°
2026-04-25 09:36 46.28761 20.72893 38019 ft 411 kts 336°
2026-04-25 09:36 46.34183 20.69830 38014 ft 412 kts 336°
2026-04-25 09:37 46.39529 20.66801 38012 ft 412 kts 336°
2026-04-25 09:37 46.42211 20.65280 37854 ft 412 kts 336°
2026-04-25 09:37 46.44930 20.63736 37586 ft 410 kts 336°
2026-04-25 09:37 46.47598 20.62219 37220 ft 407 kts 336°
2026-04-25 09:38 46.50290 20.60689 36702 ft 405 kts 336°
2026-04-25 09:38 46.52941 20.59180 36063 ft 406 kts 336°
2026-04-25 09:38 46.55642 20.57640 35372 ft 407 kts 336°
2026-04-25 09:38 46.58308 20.56116 34675 ft 408 kts 336°
2026-04-25 09:39 46.60995 20.54580 33960 ft 410 kts 336°
2026-04-25 09:39 46.63704 20.53029 33279 ft 410 kts 336°
2026-04-25 09:39 46.66386 20.51492 32811 ft 405 kts 336°
2026-04-25 09:40 46.71661 20.48468 31880 ft 395 kts 336°
2026-04-25 09:40 46.74241 20.46986 31409 ft 391 kts 336°
2026-04-25 09:40 46.76816 20.45504 30942 ft 387 kts 336°
2026-04-25 09:40 46.79333 20.44055 30483 ft 384 kts 336°
2026-04-25 09:41 46.81848 20.42604 30020 ft 380 kts 336°
2026-04-25 09:41 46.84322 20.41177 29561 ft 377 kts 336°
2026-04-25 09:41 46.86777 20.39759 29105 ft 373 kts 336°
2026-04-25 09:41 46.89224 20.38346 28646 ft 370 kts 336°
2026-04-25 09:42 46.91662 20.36934 28189 ft 367 kts 336°
2026-04-25 09:42 46.94110 20.35516 27728 ft 364 kts 336°
2026-04-25 09:42 46.96501 20.34129 27278 ft 361 kts 335°
2026-04-25 09:42 46.98886 20.32744 26824 ft 358 kts 335°
2026-04-25 09:43 47.01274 20.31357 26369 ft 356 kts 335°
2026-04-25 09:43 47.03605 20.30001 25920 ft 353 kts 335°
2026-04-25 09:43 47.05949 20.28636 25467 ft 351 kts 335°
2026-04-25 09:43 47.08268 20.27284 25018 ft 348 kts 335°
2026-04-25 09:44 47.10585 20.25931 24565 ft 346 kts 335°
2026-04-25 09:44 47.12822 20.24603 24124 ft 343 kts 332°
2026-04-25 09:44 47.14939 20.22899 23676 ft 339 kts 324°
2026-04-25 09:44 47.16821 20.20736 23224 ft 336 kts 315°
2026-04-25 09:45 47.18514 20.18218 22777 ft 333 kts 312°
2026-04-25 09:45 47.20110 20.15712 22346 ft 331 kts 312°
2026-04-25 09:45 47.21685 20.13220 21916 ft 329 kts 312°
2026-04-25 09:45 47.23276 20.10704 21480 ft 328 kts 312°
2026-04-25 09:46 47.24863 20.08197 21041 ft 326 kts 312°
2026-04-25 09:46 47.26436 20.05712 20606 ft 324 kts 312°
2026-04-25 09:46 47.28040 20.03177 20160 ft 322 kts 312°
2026-04-25 09:46 47.29599 20.00711 19730 ft 320 kts 312°
2026-04-25 09:47 47.31127 19.98292 19300 ft 319 kts 312°
2026-04-25 09:47 47.32707 19.95790 18854 ft 317 kts 312°
2026-04-25 09:47 47.34251 19.93342 18420 ft 315 kts 312°
2026-04-25 09:47 47.35799 19.90889 17984 ft 314 kts 312°
2026-04-25 09:48 47.37319 19.88477 17554 ft 312 kts 312°
2026-04-25 09:48 47.38815 19.86099 17129 ft 310 kts 312°
2026-04-25 09:48 47.40297 19.83734 16708 ft 309 kts 312°
2026-04-25 09:48 47.41781 19.81317 16277 ft 307 kts 311°
2026-04-25 09:49 47.43229 19.78943 15855 ft 306 kts 312°
2026-04-25 09:49 47.44688 19.76551 15426 ft 304 kts 312°
2026-04-25 09:49 47.46127 19.74194 15003 ft 303 kts 312°
2026-04-25 09:49 47.47580 19.71814 14573 ft 302 kts 312°
2026-04-25 09:50 47.49000 19.69488 14152 ft 300 kts 312°
2026-04-25 09:50 47.50428 19.67147 13726 ft 299 kts 313°
2026-04-25 09:50 47.51843 19.64823 13303 ft 298 kts 313°
2026-04-25 09:50 47.53235 19.62537 12883 ft 297 kts 313°
2026-04-25 09:51 47.54666 19.60185 12452 ft 295 kts 313°
2026-04-25 09:51 47.56052 19.57907 12035 ft 294 kts 313°
2026-04-25 09:51 47.57447 19.55610 11616 ft 293 kts 313°
2026-04-25 09:51 47.58803 19.53378 11208 ft 291 kts 313°
2026-04-25 09:52 47.60193 19.51088 10790 ft 290 kts 313°
2026-04-25 09:52 47.61398 19.48663 10457 ft 285 kts 295°
2026-04-25 09:52 47.61734 19.45786 10289 ft 279 kts 268°
2026-04-25 09:52 47.61157 19.42980 9945 ft 283 kts 242°
2026-04-25 09:53 47.59823 19.40735 9575 ft 287 kts 227°
2026-04-25 09:53 47.58330 19.38739 9205 ft 285 kts 226°
2026-04-25 09:53 47.56857 19.36794 8839 ft 283 kts 226°
2026-04-25 09:53 47.55402 19.34851 8532 ft 279 kts 226°
2026-04-25 09:54 47.53818 19.33193 8318 ft 277 kts 204°
2026-04-25 09:54 47.51897 19.32975 8165 ft 275 kts 168°
2026-04-25 09:54 47.50223 19.34356 7850 ft 275 kts 135°
2026-04-25 09:54 47.48948 19.36479 7559 ft 272 kts 129°
2026-04-25 09:55 47.47720 19.38643 7252 ft 270 kts 130°
2026-04-25 09:55 47.46461 19.40794 6943 ft 267 kts 131°
2026-04-25 09:55 47.45213 19.42848 6641 ft 265 kts 132°
2026-04-25 09:55 47.43956 19.44884 6334 ft 263 kts 132°
2026-04-25 09:56 47.42699 19.46907 6026 ft 261 kts 132°
2026-04-25 09:56 47.41446 19.48923 5720 ft 260 kts 133°
2026-04-25 09:56 47.40204 19.50916 5423 ft 258 kts 133°
2026-04-25 09:56 47.38992 19.52856 5131 ft 256 kts 133°
2026-04-25 09:57 47.37753 19.54837 4814 ft 255 kts 133°
2026-04-25 09:57 47.36319 19.56397 4436 ft 252 kts 164°
2026-04-25 09:57 47.34602 19.56478 4110 ft 243 kts 200°
2026-04-25 09:57 47.33157 19.55193 3830 ft 232 kts 225°
2026-04-25 09:58 47.31986 19.53543 3618 ft 225 kts 227°
2026-04-25 09:58 47.30903 19.51852 3356 ft 219 kts 240°
2026-04-25 09:58 47.30477 19.49782 3123 ft 203 kts 272°
2026-04-25 09:58 47.30930 19.47812 3052 ft 198 kts 302°
2026-04-25 09:59 47.31797 19.46211 3079 ft 199 kts 312°
2026-04-25 09:59 47.32784 19.44711 3069 ft 199 kts 314°
2026-04-25 09:59 47.33758 19.43221 2886 ft 195 kts 313°
2026-04-25 09:59 47.34645 19.41811 2668 ft 179 kts 312°
2026-04-25 10:00 47.35467 19.40476 2404 ft 165 kts 311°
2026-04-25 10:00 47.36200 19.39276 2169 ft 152 kts 311°
2026-04-25 10:00 47.36879 19.38167 1955 ft 138 kts 312°
2026-04-25 10:00 47.37516 19.37127 1783 ft 134 kts 311°
2026-04-25 10:01 47.38154 19.36125 1616 ft 133 kts 315°
2026-04-25 10:01 47.38783 19.35107 1443 ft 133 kts 311°
2026-04-25 10:01 47.39384 19.34076 1255 ft 132 kts 312°
2026-04-25 10:01 47.40002 19.33065 1079 ft 132 kts 313°
2026-04-25 10:02 47.40626 19.32084 918 ft 132 kts 314°
2026-04-25 10:02 47.41250 19.31082 725 ft 131 kts 312°
2026-04-25 10:02 47.41870 19.30080 550 ft 131 kts 313°
2026-04-25 10:02 47.42481 19.29098 426 ft 129 kts 313°
2026-04-25 10:03 47.43020 19.28222 428 ft 95 kts 313°
2026-04-25 10:03 47.43350 19.27687 445 ft 45 kts 311°
2026-04-25 10:03 47.43498 19.27446 453 ft 27 kts 312°
2026-04-25 10:03 47.43624 19.27240 459 ft 26 kts 311°
2026-04-25 10:04 47.43721 19.27009 466 ft 26 kts 291°
2026-04-25 10:04 47.43766 19.26750 473 ft 24 kts 284°
2026-04-25 10:04 47.43797 19.26537 475 ft 14 kts 282°
2026-04-25 10:04 47.43753 19.26422 476 ft 13 kts 222°
2026-04-25 10:05 47.43682 19.26326 475 ft 14 kts 221°
2026-04-25 10:05 47.43606 19.26228 476 ft 13 kts 223°
2026-04-25 10:05 47.43536 19.26128 475 ft 13 kts 223°
2026-04-25 10:05 47.43474 19.26047 475 ft 6 kts 192°
2026-04-25 10:06 47.43443 19.26076 475 ft 6 kts 133°
2026-04-25 10:06 47.43415 19.26120 475 ft 1 kts 133°
2026-04-25 10:06 47.43414 19.26123 475 ft 0 kts 133°